www.pogodaiklimat.ru

Погода и климат >> Архив погоды >> Финляндия >> Эспо Тапиола


ПОГОДА в Эспо Тапиола

  • Прогноз погоды в Эспо Тапиола
  • Монитор погоды в Эспо Тапиола

АРХИВ ПОГОДЫ в Эспо Тапиола

Время (UTC), дата Ветер
(напр.,м/с)
 
Видим.   Явления Облачность Т
(С)
Тd
(С)
f
(%)
Тe
(С)
Тes
(С)
Комфортность P
(гПа)
Po
(гПа)
Тmin
(С)
Tmax
(С)
R
(мм)
R24
(мм)
S
(см)
21 18.06 ЮЗ 4 20 км ясно +15.2 +12.6 84 +14 +14 1015.6 1014.7
00 19.06 ЮЗ 2 16 км ясно +13.2 +12.2 94 +12 +12 1015.8 1014.9
03 19.06 ЮЗ 1 11 км 4/0
[]
+13.4 +12.9 97 +13 +14 1015.8 1014.9
06 19.06 ЮЗ 4 26 км ясно +18.4 +13.1 71 +19 +23 1015.2 1014.3 +12.0 +20.5
09 19.06 ЮЗ 7 30 км ясно +20.8 +12.4 59 +23 +27 комфорт 1015.1 1014.2
12 19.06 ЮЗ 9 25 км ясно +22.4 +11.1 49 +25 +26 комфорт 1015.1 1014.2
15 19.06 ЮЗ 7 30 км ясно +22.7 +10.5 46 +25 +26 комфорт 1014.1 1013.2
18 19.06 ЮЗ 4 30 км ясно +21.5 +11.2 52 +23 +24 комфорт 1013.5 1012.6 +18.4 +23.5
21 19.06 ЮЗ 2 27 км ясно +15.6 +12.3 81 +16 +16 1013.7 1012.8
00 20.06 Ю 3 24 км ясно +13.5 +12.2 92 +12 +12 1014.0 1013.0
03 20.06 Ю 2 28 км 8/8 2000 м
[]
+15.3 +12.9 86 +15 +15 1013.7 1012.8
06 20.06 Ю 1 30 км ясно +18.9 +14.3 75 +21 +29 комфорт 1013.5 1012.6 +12.7 +21.5
09 20.06 ЮВ 3 30 км ясно +21.3 +13.3 60 +24 +35 комфорт 1013.0 1012.1
12 20.06 ЮВ 4 25 км ясно +23.4 +12.2 49 +26 +35 жарко 1012.2 1011.3
15 20.06 В 5 30 км 6/0
[]
+23.3 +11.2 46 +26 +28 жарко 1010.4 1009.5
18 20.06 В 3 28 км 4/4
[]
+21.8 +13.7 60 +25 +25 комфорт 1009.6 1008.7 +18.9 +24.8
21 20.06 Ю 3 27 км 6/1 1500 м
[]
+17.8 +14.3 80 +18 +18 1009.9 1009.0
00 21.06 Ю 3 20 км ясно +15.4 +14.6 95 +15 +15 1009.2 1008.3
03 21.06 Ю 3 20 км ясно +16.7 +15.9 95 +16 +17 1008.7 1007.8
06 21.06 Ю 3 25 км ясно +19.3 +16.3 83 +21 +27 комфорт 1008.7 1007.8 +15.4 +21.9
09 21.06 Ю 5 24 км ясно +22.6 +17.6 73 +28 +35 душно 1009.0 1008.1
12 21.06 ЮЗ 5 22 км ясно +24.9 +16.6 60 +28 +35 жарко 1009.1 1008.2
15 21.06 ЮЗ 6 28 км ясно +24.7 +14.6 53 +27 +29 жарко 1009.1 1008.3
18 21.06 ЮЗ 7 30 км ясно +20.3 +12.5 61 +22 +22 комфорт 1009.7 1008.8 +19.3 +25.5
21 21.06 ЮЗ 4 26 км 9/0
[]
+16.1 +13.3 83 +15 +15 1010.8 1009.9
00 22.06 ЮЗ 3 23 км 9/5
[]
+14.6 +13.2 91 +14 +14 1011.2 1010.3
03 22.06 ЮЗ 3 26 км 9/9
[]
+15.2 +13.4 89 +14 +15 1011.4 1010.5
06 22.06 З 5 30 км 9/9 1000 м
[]
+17.0 +8.7 58 +16 +17 1012.5 1011.6 +14.0 +20.3
09 22.06 ЮЗ 6 30 км 4/4 600 м
[]
+18.2 +10.4 60 +18 +21 1013.3 1012.4
12 22.06 ЮЗ 9 28 км 5/5 1000 м
[]
+19.3 +9.7 54 +19 +20 1014.9 1014.0
15 22.06 З 8 40 км 4/4 1000 м
[]
+19.2 +6.5 44 +19 +20 1016.4 1015.5
18 22.06 З 5 35 км ясно +18.3 +6.7 47 +18 +18 1018.0 1017.1 +13.7 +20.0 1
21 22.06 ЮЗ 4 45 км ясно +14.4 +7.2 62 +13 +13 1019.6 1018.7
00 23.06 З 3 26 км ясно +13.0 +11.0 88 +12 +12 1020.4 1019.5
03 23.06 З 3 40 км ясно +13.2 +9.4 78 +12 +13 1021.6 1020.7
06 23.06 СЗ 3 30 км ясно +17.2 +5.4 46 +17 +22 1022.5 1021.6 +11.1 +18.3
09 23.06 Ю 5 30 км ясно +18.4 +10.2 59 +18 +25 1022.7 1021.8
12 23.06 Ю 6 35 км 3/3
[]
+20.1 +7.8 45 +21 +24 комфорт 1022.4 1021.5
15 23.06 ЮЗ 5 35 км 8/8
[]
+19.5 +8.2 48 +20 +21 1022.0 1021.1
18 23.06 ЮЗ 4 30 км 1/1
[]
+18.4 +9.8 57 +19 +19 1021.8 1020.9 +17.1 +21.6
21 23.06 З 4 35 км 10/10
[]
+16.7 +10.4 66 +16 +16 1022.4 1021.5
00 24.06 З 3 40 км 9/9
[]
+15.4 +9.9 70 +15 +15 1023.7 1022.8
03 24.06 СЗ 3 35 км ясно +14.3 +10.1 76 +13 +14 1025.0 1024.1
06 24.06 СЗ 3 40 км ясно +17.6 +7.0 50 +18 +23 1026.1 1025.2 +12.2 +18.4
09 24.06 СЗ 4 35 км 1/1 2000 м
[]
+20.4 +3.9 34 +21 +29 комфорт 1026.7 1025.8
12 24.06 СЗ 5 35 км 3/3 2000 м
[]
+21.5 +4.6 33 +22 +27 комфорт 1027.1 1026.2
15 24.06 СЗ 6 35 км ясно +21.8 +1.8 27 +22 +24 комфорт 1027.2 1026.3
18 24.06 СЗ 4 30 км ясно +20.6 +1.9 29 +21 +21 комфорт 1027.8 1026.9 +17.6 +22.8
21 24.06 СЗ 3 45 км ясно +12.8 +4.5 57 +12 +12 1029.3 1028.3
00 25.06 СЗ 3 40 км ясно +10.3 +6.2 76 +8 +8 1029.8 1028.9
03 25.06 СЗ 2 40 км 8/0
[]
+11.7 +7.9 77 +11 +11 1030.2 1029.3
06 25.06 З 1 35 км ясно +16.4 +9.0 62 +17 +25 1030.3 1029.4 +8.8 +20.6
09 25.06 ЮЗ 2 35 км ясно +19.3 +6.1 42 +20 +34 опасность
простуды
1029.6 1028.7
12 25.06 Ю 3 26 км ясно +20.7 +8.8 46 +22 +33 комфорт 1028.4 1027.5
15 25.06 ЮЗ 6 35 км 1/0
[]
+20.4 +7.6 44 +21 +23 комфорт 1027.0 1026.1

 

Местоположение метеостанции Эспо Тапиола (Финляндия): широта 60.18 долгота 24.79 высота над уровнем моря 8 м.

В архиве по умолчанию представлена погода в Эспо Тапиола за последнюю неделю. Архивные данные за месяц целиком и за предыдущие месяцы, начиная с января 2011 года, Вы можете получить, выбрав интересующий диапазон дат из раскрывающегося списка и нажав кнопку "Ввод!".


*Определитесь, кто Вы:
робот инопланетянин человек

Внимание! Время в таблицах - всемирное. Для получения местного времени необходимо прибавить поправку, которая равна 1 ч.

Смотрите также архив погоды в соседних городах и на ближайших метеорологических станциях:

Погода в Хельсинки Кайсаниеми (Финляндия) (8 км)
Погода в Хельсинки университете (Финляндия) (10 км)
Погода на Острове Хармая (Финляндия) (14 км)
Погода в Эспо Нууксио (Финляндия) (17 км)
Погода в Хельсинки (Финляндия) (19 км)
Погода на Хельсинском маяке (Финляндия) (27 км)
Погода в Вихти (Финляндия) (34 км)
Погода в Нурмиярви (Финляндия) (38 км)
Погода на Острове Мякилюото (Финляндия) (38 км)
Погода в Лохья Порла (Финляндия) (41 км)

Пояснения к столбцам:

Ветер - указаны скорость ветра в м/с - средняя за 10 мин, порывы в срок и между сроками (в фигурных скобках) и направление, откуда дует ветер: С - северный, СВ - северо-восточный, В - восточный, ЮВ - юго-восточный, Ю - южный, ЮЗ - юго-западный, З - западный, СЗ - северо-западный.
Видимость - горизонтальная дальность видимости в метрах или километрах. При видимости от 1 до 10 км при отсутствии осадков обычно наблюдается дымка, при ухудшении видимости до 1 км и менее - туман. В сухую погоду видимость может ухудшаться дымом, пылью или мглою.
Явления - указаны атмосферные явления, наблюдавшиеся в срок или в последний час перед сроком; фигурными скобками обозначены явления, наблюдавшиеся между сроками (за 1-3 часа до срока); квадратными скобками обозначены град или гололедные отложения с указанием их диаметра в мм.
Облачность - указаны через наклонную черту общая и нижняя облачность в баллах и высота нижней границы облаков в метрах; квадратными скобками обозначены формы облаков: Ci - перистые, Cs - перисто-слоистые, Cc - перисто-кучевые, Ac - высококучевые, As - высокослоистые, Sc - слоисто-кучевые, Ns - слоисто-дождевые, Cu - кучевые, Cb - кучево-дождевые. Подробнее классификацию облаков см. в Атласе облаков (PDF).
T - Температура воздуха - температура, измеренная на высоте 2 м над землей.
Td - Температура точки росы - температура, при понижении до которой содержащийся в воздухе водяной пар достигнет насыщения.
f - Относительная влажность воздуха - влажноcть воздуха, измеренная на высоте 2 м над землей.
Te - Эффективная температура - температура, которую ощущает одетый по сезону человек в тени. Характеристика душности погоды. При расчете учитывается влияние влажности воздуха и скорости ветра на теплоощущения человека.
Tes - Эффективная температура на солнце - температура, которую ощущает человек, с поправкой на солнечный нагрев. Характеристика знойности погоды. Зависит от высоты солнца над горизонтом, облачности и скорости ветра. Ночью, в пасмурную погоду, а также при ветре 12 м/с и более поправка равна нулю.
P - Атмосферное давление - приведенное к уровню моря атмосферное давление.
Po - Атмосферное давление - измеренное на уровне метеостанции атмосферное давление.
Tmin - Минимальная температура - минимум температуры воздуха на высоте 2 м над землей.
Tmax - Максимальная температура - максимум температуры воздуха на высоте 2 м над землей.
R - Количество осадков - Количество выпавших осадков за период времени, мм. При наведении курсора мыши на число - период времени, за который выпало указанное количество осадков.
R24 - Количество осадков - Количество выпавших осадков за 24 часа, мм.
S - Снежный покров - Высота снежного покрова, см. При наведении курсора мыши на число - состояние снежного покрова и степень покрытия местности в баллах.